www.pogodaiklimat.ru

Погода и климат >> Архив погоды >> Россия >> Ненецкий АО >> Сенгейский Шар


ПОГОДА в Сенгейском Шаре

  • Прогноз погоды в Сенгейском Шаре
  • Монитор погоды в Сенгейском Шаре

АРХИВ ПОГОДЫ в Сенгейском Шаре

Время (UTC), дата Ветер
(напр.,м/с)
 
Видим.   Явления Облачность Т
(С)
Тd
(С)
f
(%)
Тe
(С)
Тes
(С)
Комфортность P
(гПа)
Po
(гПа)
Тmin
(С)
Tmax
(С)
R
(мм)
R24
(мм)
S
(см)
15 12.06 С 9
{16}
н/о н/о +2.8 +0.9 87 -4 -4 1013.9 1013.3
18 12.06 С 11
{16}
н/о н/о +2.7 +1.2 90 -5 -5 1013.9 1013.3
21 12.06 СЗ 12
{17}
н/о н/о +2.3 +1.1 92 -6 -6 1013.9 1013.3
00 13.06 СЗ 12
{17}
н/о н/о +2.5 +1.0 90 -6 -6 1013.9 1013.3
03 13.06 С 13
{20}
н/о н/о +2.4 +0.1 85 -6 -6 1015.3 1014.7
06 13.06 С 11
{19}
н/о н/о +2.6 +1.0 89 -5 -5 1015.3 1014.7
09 13.06 СЗ 10
{16}
н/о н/о +2.9 +0.6 85 -4 -4 1016.6 1016.0
12 13.06 СЗ 10
{15}
н/о н/о +3.1 +0.8 85 -4 -4 1016.6 1016.0
15 13.06 СЗ 10
{14}
н/о н/о +2.8 +0.4 84 -4 -4 1016.6 1016.0
18 13.06 С 11
{15}
н/о н/о +2.3 -0.3 83 -5 -5 1015.3 1014.7
21 13.06 С 9
{16}
н/о н/о +1.7 -0.4 86 -6 -6 1015.3 1014.7
00 14.06 С 8
{14}
н/о н/о +1.6 -0.3 87 -5 -5 1013.9 1013.3
03 14.06 СЗ 8
{13}
н/о н/о +1.8 -0.3 86 -5 -5 1013.9 1013.3
06 14.06 СЗ 6 н/о н/о +2.9 +0.3 83 -3 -3 1013.9 1013.3
09 14.06 З 7 н/о н/о +3.9 +1.9 87 -2 -2 1012.6 1012.0
12 14.06 З 9 н/о н/о +3.3 +2.3 93 -4 -4 1011.3 1010.7
15 14.06 З 9
{13}
н/о н/о +3.0 +2.0 93 -4 -4 1008.6 1008.0
18 14.06 З 10
{13}
н/о н/о +3.1 +2.7 97 -4 -4 1005.9 1005.3
21 14.06 СЗ 8
{13}
н/о н/о +2.7 +1.8 94 -4 -4 1004.6 1004.0
00 15.06 СЗ 8 н/о н/о +2.2 +1.3 94 -5 -5 1004.6 1004.0
03 15.06 СЗ 9 н/о н/о +2.5 +0.7 88 -5 -5 1004.6 1004.0
06 15.06 С 6
{13}
н/о н/о +2.7 +1.2 90 -3 -3 1005.9 1005.3
09 15.06 С 7 н/о н/о +3.8 -0.4 74 -2 -2 1005.9 1005.3
12 15.06 СЗ 5 н/о н/о +3.2 +1.1 86 -2 -2 1007.3 1006.7
15 15.06 СЗ 9 н/о н/о +3.0 +2.1 94 -4 -4 1005.9 1005.3
18 15.06 СЗ 8
{14}
н/о н/о +3.6 +2.7 94 -3 -3 1003.3 1002.7
21 15.06 СЗ 9 н/о н/о +3.2 +2.6 96 -4 -4 1001.9 1001.3
00 16.06 СЗ 10
{13}
н/о н/о +3.3 +2.9 97 -4 -4 1000.6 1000.0
03 16.06 З 9 н/о н/о +3.2 +2.9 98 -4 -4 997.9 997.3
06 16.06 З 7 н/о н/о +3.6 +3.3 98 -3 -3 997.9 997.3
09 16.06 СЗ 8 н/о н/о +3.7 +2.2 90 -3 -3 997.9 997.3
12 16.06 СЗ 11
{14}
н/о н/о +3.3 +2.4 94 -4 -4 997.9 997.3
15 16.06 СЗ 11
{16}
н/о н/о +3.2 +2.3 94 -4 -4 997.9 997.3
18 16.06 СЗ 9
{14}
н/о н/о +3.0 +2.0 93 -4 -4 997.9 997.3
21 16.06 СЗ 10
{14}
н/о н/о +2.4 +1.5 94 -5 -5 997.9 997.3
00 17.06 СЗ 10
{14}
н/о н/о +3.0 +1.7 91 -4 -4 997.9 997.3
03 17.06 СЗ 10
{14}
н/о н/о +2.5 +1.2 91 -5 -5 997.9 997.3
06 17.06 СЗ 10
{13}
н/о н/о +3.1 +1.5 89 -4 -4 997.9 997.3
09 17.06 СЗ 10
{15}
н/о н/о +2.9 +1.6 91 -4 -4 999.3 998.7
12 17.06 СЗ 10
{15}
н/о н/о +3.3 +1.8 90 -4 -4 1000.6 1000.0
15 17.06 З 10
{15}
н/о н/о +3.2 +1.7 90 -4 -4 1000.6 1000.0
18 17.06 СЗ 10
{14}
н/о н/о +2.9 +1.1 88 -4 -4 1000.6 1000.0
21 17.06 СЗ 9
{15}
н/о н/о +1.8 +0.8 93 -6 -6 1000.6 1000.0
00 18.06 СЗ 11
{15}
н/о н/о +2.6 +0.5 86 -5 -5 1000.6 1000.0
03 18.06 СЗ 8
{15}
н/о н/о +2.7 +0.6 86 -4 -4 1001.9 1001.3
06 18.06 СЗ 6 н/о н/о +3.4 +0.8 83 -2 -2 1003.3 1002.7
09 18.06 СЗ 8 н/о н/о +3.9 +1.8 86 -2 -2 1004.6 1004.0
12 18.06 СЗ 6 н/о н/о +3.7 +2.1 89 -2 -2 1005.9 1005.3
15 18.06 СЗ 6 н/о н/о +3.4 +1.3 86 -2 -2 1007.3 1006.7
18 18.06 СЗ 6 н/о н/о +3.2 +1.2 87 -3 -3 1007.3 1006.7
21 18.06 СЗ 7 н/о н/о +2.6 +0.7 87 -4 -4 1007.3 1006.7
00 19.06 СЗ 7 н/о н/о +2.1 +0.5 89 -4 -4 1007.3 1006.7
03 19.06 СЗ 7 н/о н/о +2.7 +0.9 88 -4 -4 1007.3 1006.7
06 19.06 СЗ 6 н/о н/о +2.5 +1.3 92 -4 1007.3 1006.7
09 19.06 З 8 н/о н/о +3.4 +1.3 86 -3 1008.6 1008.0
12 19.06 З 7 н/о н/о +4.1 +1.0 80 -2 1008.6 1008.0

 

Местоположение метеостанции Сенгейский Шар (Ненецкий АО, Россия): широта 68.48 долгота 51.25 высота над уровнем моря 5 м.

В архиве по умолчанию представлена погода в Сенгейском Шаре за последнюю неделю. Архивные данные за месяц целиком и за предыдущие месяцы, начиная с января 2011 года, Вы можете получить, выбрав интересующий диапазон дат из раскрывающегося списка и нажав кнопку "Ввод!".


*Определитесь, кто Вы:
робот инопланетянин человек

Внимание! Время в таблицах - всемирное. Для получения местного времени необходимо прибавить поправку, которая равна 3 ч.

Смотрите также архив погоды в соседних городах и на ближайших метеорологических станциях:

Погода в Бугрино (Ненецкий АО, Россия) (86 км)
Погода в Ходоварихе (Ненецкий АО, Россия) (113 км)
Погода в Нарьян-Маре (Ненецкий АО, Россия) (120 км)
Погода в Индиге (Ненецкий АО, Россия) (139 км)
Погода на Колгуевом Острове (Ненецкий АО, Россия) (145 км)
Погода в Коткино (Ненецкий АО, Россия) (161 км)
Погода на Мысе Константиновском (Ненецкий АО, Россия) (173 км)
Погода на Мысе Микулкин (Ненецкий АО, Россия) (205 км)
Погода в Нижней Пеше (Ненецкий АО, Россия) (242 км)
Погода в Окуневом Носу (Коми, Россия) (254 км)

Пояснения к столбцам:

Ветер - указаны скорость ветра в м/с - средняя за 10 мин, порывы в срок и между сроками (в фигурных скобках) и направление, откуда дует ветер: С - северный, СВ - северо-восточный, В - восточный, ЮВ - юго-восточный, Ю - южный, ЮЗ - юго-западный, З - западный, СЗ - северо-западный.
Видимость - горизонтальная дальность видимости в метрах или километрах. При видимости от 1 до 10 км при отсутствии осадков обычно наблюдается дымка, при ухудшении видимости до 1 км и менее - туман. В сухую погоду видимость может ухудшаться дымом, пылью или мглою.
Явления - указаны атмосферные явления, наблюдавшиеся в срок или в последний час перед сроком; фигурными скобками обозначены явления, наблюдавшиеся между сроками (за 1-3 часа до срока); квадратными скобками обозначены град или гололедные отложения с указанием их диаметра в мм.
Облачность - указаны через наклонную черту общая и нижняя облачность в баллах и высота нижней границы облаков в метрах; квадратными скобками обозначены формы облаков: Ci - перистые, Cs - перисто-слоистые, Cc - перисто-кучевые, Ac - высококучевые, As - высокослоистые, Sc - слоисто-кучевые, Ns - слоисто-дождевые, Cu - кучевые, Cb - кучево-дождевые. Подробнее классификацию облаков см. в Атласе облаков (PDF).
T - Температура воздуха - температура, измеренная на высоте 2 м над землей.
Td - Температура точки росы - температура, при понижении до которой содержащийся в воздухе водяной пар достигнет насыщения.
f - Относительная влажность воздуха - влажноcть воздуха, измеренная на высоте 2 м над землей.
Te - Эффективная температура - температура, которую ощущает одетый по сезону человек в тени. Характеристика душности погоды. При расчете учитывается влияние влажности воздуха и скорости ветра на теплоощущения человека.
Tes - Эффективная температура на солнце - температура, которую ощущает человек, с поправкой на солнечный нагрев. Характеристика знойности погоды. Зависит от высоты солнца над горизонтом, облачности и скорости ветра. Ночью, в пасмурную погоду, а также при ветре 12 м/с и более поправка равна нулю.
P - Атмосферное давление - приведенное к уровню моря атмосферное давление.
Po - Атмосферное давление - измеренное на уровне метеостанции атмосферное давление.
Tmin - Минимальная температура - минимум температуры воздуха на высоте 2 м над землей.
Tmax - Максимальная температура - максимум температуры воздуха на высоте 2 м над землей.
R - Количество осадков - Количество выпавших осадков за период времени, мм. При наведении курсора мыши на число - период времени, за который выпало указанное количество осадков.
R24 - Количество осадков - Количество выпавших осадков за 24 часа, мм.
S - Снежный покров - Высота снежного покрова, см. При наведении курсора мыши на число - состояние снежного покрова и степень покрытия местности в баллах.